Location: Jericho Jewish Center
(40.7885°N, 73.5363°W)
Time: 04:48:33
(UTC+00:00)

Daily predictions for brighter satellites

Satellite Brightness Start Highest point End
(mag) Time Altitude Azimuth Time Altitude Azimuth Time Altitude Azimuth
BREEZE-M DEB (TANK) 4.0 00:03:25 10° NW 00:05:18 18° NNE 00:08:01 10° ENE
Cosmos 2278 Rocket 2.3 00:01:10 10° NNW 00:06:49 65° ENE 00:12:25 10° SSE
Cosmos 1933 Rocket 4.1 00:02:59 10° SSW 00:07:20 67° W 00:11:44 10° N
Cosmos 2084 Rocket 4.3 00:04:22 10° SW 00:08:18 52° NW 00:12:19 10° NNE
Cosmos 1048 Rocket 4.1 00:03:32 10° NNW 00:08:39 60° ENE 00:13:46 10° SSE
Cosmos 1733 Rocket 3.7 00:07:14 10° SSE 00:11:09 34° E 00:15:07 10° NNE
Resurs 01 Rocket 2.5 00:07:32 10° S 00:11:47 53° W 00:16:04 10° NNW
COSMOS 2428 4.3 00:12:08 10° SW 00:17:29 40° WNW 00:22:53 10° N
TSX-5 4.3 00:14:19 10° SSW 00:19:23 80° WNW 00:23:35 10° NNE
USA 32 4.4 00:15:14 10° SSE 00:20:08 43° E 00:25:03 10° NNE
CZ-4 R/B 1.9 00:19:54 10° SE 00:23:19 34° ENE 00:26:42 10° N
CSL-04 Debris 4.4 00:19:51 10° SSE 00:25:03 54° ENE 00:30:17 10° N
In-Cosmos 22 Rocket 4.2 00:20:14 10° NNW 00:25:33 81° W 00:30:53 10° S
OAO 3 Rocket 3.7 00:22:38 10° WSW 00:26:59 41° S 00:30:50 13° ESE
Cosmos 1821 Rocket 4.2 00:23:50 10° SSE 00:29:53 54° E 00:36:03 10° NNE
SL-08 R/B 4.5 00:27:25 10° NE 00:31:22 24° E 00:35:18 10° SSE
Cosmos 1125 Rocket 3.4 00:26:35 10° S 00:31:46 74° ESE 00:37:01 10° NNE
Cosmos 614 Rocket 4.2 00:27:23 10° N 00:32:24 51° ENE 00:37:04 11° SE
SL-16 R/B 2.9 00:29:21 10° SSE 00:34:17 32° ESE 00:39:14 10° NE
Cosmos 2218 Rocket 3.9 00:28:15 10° S 00:34:22 82° E 00:40:34 10° N
CZ-4B R/B 3.8 00:31:38 10° SSE 00:35:17 60° ENE 00:39:05 10° N
Meteor 2-15 4.4 00:32:27 10° S 00:38:30 82° E 00:44:37 10° N
ERS-1 Rocket 3.5 00:35:42 12° SE 00:39:59 41° ENE 00:44:40 10° N
USA 234 3.3 00:36:00 10° NE 00:42:28 61° SE 00:48:56 10° SSW
USA 59 Rocket 0.2 00:40:06 10° NNW 00:43:34 48° NE 00:46:41 18° ESE
Meteor 2-15 Rocket 4.4 00:39:31 10° S 00:45:30 66° E 00:51:33 10° NNE
Cosmos 468 4.5 00:41:01 10° NNW 00:46:17 73° ENE 00:51:05 12° SSE
OAO 2 Rocket 3.9 00:41:49 10° WSW 00:46:41 42° S 00:49:56 19° ESE
PAYLOAD B 4.3 00:45:24 12° SSE 00:50:24 58° ENE 00:55:47 10° N
Cosmos 1812 2.1 00:52:09 26° NNE 00:52:09 26° NNE 00:53:04 10° NNE
IRAS Rocket 4.3 00:48:57 10° SSE 00:54:26 84° WSW 00:59:57 10° NNW
SL-8 R/B 3.9 00:51:59 10° WSW 00:56:43 73° NNW 01:01:27 10° ENE
USA 238 DEB 4.2 00:49:44 10° NW 00:57:18 74° WSW 01:04:50 13° SSE
USA 238 4.2 00:49:54 10° NW 00:57:29 75° WSW 01:04:57 13° SSE
BREEZE-M DEB (TANK) 3.7 00:56:47 10° WNW 00:59:03 22° SW 01:00:00 17° S
Cosmos 1656 Rocket 3.9 00:53:53 10° NNW 00:59:13 51° ENE 01:02:31 23° SE
Helios 1A Rocket 2.5 00:56:27 10° N 00:59:39 71° WNW 01:02:49 10° SSW
Cosmos 1400 Rocket 2.9 00:58:41 10° SSW 01:02:14 64° W 01:05:50 10° N
Cosmos 2237 Rocket 3.6 00:57:22 10° SW 01:02:42 41° WNW 01:08:05 10° N
Cosmos 1346 Rocket 3.1 00:59:26 10° N 01:02:50 38° ENE 01:03:48 31° ESE
Geosat 4.2 00:58:46 10° NE 01:03:33 45° ESE 01:08:18 10° S
Spot 2 Rocket 4.3 01:02:36 23° ESE 01:04:47 33° ENE 01:09:15 10° N
Cosmos 2285 Rocket 4.2 00:58:53 10° S 01:04:56 48° ESE 01:10:58 10° NNE
Cosmos 44 3.3 01:03:15 10° SSW 01:08:13 81° ESE 01:13:30 10° NE
CSL-04 Rocket 4.4 01:04:25 10° S 01:09:50 55° W 01:15:17 10° NNW
HBTSS-SV1 4.4 01:07:17 10° WSW 01:11:43 76° S 01:13:55 29° E
Meteor 1-31 Rocket 3.6 01:08:22 10° S 01:11:43 44° W 01:15:06 10° NNW
SL-4 R/B 3.2 01:11:32 10° SSW 01:13:24 23° S 01:13:24 23° S
Feng Yun 1-1 Rocket 4.3 01:10:50 13° S 01:15:51 79° WSW 01:21:18 10° NNW
SPOT 5 4.1 01:12:15 10° SSW 01:16:27 35° W 01:20:31 10° NNW
SKYMED 3 4.1 01:12:54 10° NNE 01:16:47 84° E 01:20:14 13° S
Okean-O 3.3 01:16:38 32° ESE 01:17:42 37° ENE 01:21:45 10° N
Cosmos 1674 Rocket 3.4 01:15:05 10° N 01:19:26 79° E 01:21:34 30° SSE
Cosmos 1869 4.1 01:21:05 29° ENE 01:21:05 29° ENE 01:23:33 10° NNE
Gbstr 26 Del rocket 3.7 01:16:37 10° SSW 01:21:42 39° SE 01:22:42 35° ESE
NOSS 2-1 (D) 3.4 01:18:24 10° NW 01:22:02 81° SW 01:23:49 36° SSE
Cosmos 2150 Rocket 3.8 01:18:31 10° S 01:23:36 70° ESE 01:28:46 10° NNE
Cosmos 1908 Rocket 3.4 01:22:34 31° SSE 01:24:28 63° E 01:28:45 10° NNE
MOS 1 4.4 01:21:00 16° S 01:25:34 74° WSW 01:31:15 10° NNW
Cosmos 1943 Rocket 4.4 01:22:53 10° NW 01:27:02 21° W 01:31:08 10° SSW
Okean O Rocket 1.8 01:26:16 41° ESE 01:27:13 49° ENE 01:31:24 10° N
Cosmos 2297 4.5 01:22:34 10° N 01:27:53 37° ENE 01:29:40 30° E
NOSS 2-1 (E) 3.3 01:25:34 10° NW 01:29:11 88° ENE 01:30:24 46° SE
CZ-4B R/B 4.4 01:31:08 18° NE 01:31:08 18° NE 01:32:44 10° NNE
Terra 1.9 01:27:26 24° S 01:30:13 74° W 01:34:55 10° NNW
Cosmos 1378 Rocket 4.4 01:27:49 10° NNW 01:32:01 47° W 01:35:11 16° SSW
Cosmos 2369 Rocket 2.6 01:28:28 10° NNW 01:33:50 45° ENE 01:35:25 36° ESE
Cosmos 1782 Rocket 4.2 01:35:06 37° ENE 01:35:06 37° ENE 01:38:36 10° NNE
NOSS 2-1 (C) 3.5 01:31:14 10° NW 01:34:51 71° WSW 01:36:05 45° SSE
NOSS 3-1 (C) 4.5 01:31:36 10° NNW 01:38:31 49° NE 01:42:29 30° ESE
ADEOS 3.8 01:38:34 25° S 01:41:35 65° WSW 01:46:48 10° NNW
SPOT 3 Rocket 4.2 01:42:14 36° E 01:42:54 37° ENE 01:47:38 10° N
SL-08 R/B 4.4 01:38:56 13° S 01:44:31 86° W 01:50:39 10° N
Cosmos 1943 3.4 01:45:43 46° ESE 01:46:06 46° ESE 01:51:30 10° NE
CZ-4B R/B 3.7 01:43:20 21° S 01:46:59 57° W 01:52:34 10° NNW
USA 245 4.2 01:47:24 45° E 01:47:48 46° ENE 01:52:53 10° N
ASTEX 1 3.3 01:47:29 43° S 01:49:07 87° W 01:54:04 10° N
Cosmos 1934 Rocket 3.9 01:46:12 25° S 01:50:08 83° E 01:56:21 10° N
Cosmos 1025 Rocket 3.6 01:46:40 10° NNW 01:50:49 52° W 01:52:18 34° SSW
CZ-4 R/B 4.0 01:55:17 10° SW 01:57:26 15° W 01:59:34 10° WNW
Cosmos 1300 Rocket 3.4 02:02:59 76° WSW 02:03:10 78° W 02:07:28 10° N
Cosmos 2263 4.3 01:57:40 10° NNW 02:03:16 59° ENE 02:03:58 55° E
Cosmos 967 Rocket 4.4 02:05:39 10° NNW 02:12:07 75° ENE 02:13:16 60° ESE
BREEZE-M DEB (TANK) 4.1 02:14:32 10° NW 02:16:11 32° N 02:16:11 32° N
Cosmos 2123 Rocket 4.3 02:11:35 10° NNW 02:17:47 63° W 02:20:10 38° SSW
SL-16 R/B 3.6 02:13:03 10° SW 02:18:14 37° WNW 02:23:28 10° N
SJ 16-02 3.7 02:21:34 10° NNE 02:22:38 13° NE 02:22:38 13° NE
USA 234 4.3 02:19:10 10° NE 02:25:19 44° NNW 02:31:26 10° W
USA 59 Rocket 2.4 02:29:39 10° W 02:32:10 15° WSW 02:32:15 15° WSW
Ariane Rocket 3.1 02:36:30 70° NNW 02:36:30 70° NNW 02:40:57 10° NNW
CZ-4B R/B 3.7 02:37:09 64° NW 02:37:09 64° NW 02:41:14 10° NNW
NOSS 3-1 (A) 4.4 02:30:38 10° NNW 02:37:43 53° NE 02:39:40 45° E
Cosmos 1605 Rocket 4.0 02:37:05 60° SW 02:38:07 74° W 02:44:16 10° N
COSMOS 2455 3.3 02:41:22 10° NNW 02:46:57 48° NE 02:46:57 48° NE
Cosmos 1269 Rocket 4.3 02:42:01 10° NNW 02:46:31 65° NNW 02:46:31 65° NNW
Cosmos 921 Rocket 4.4 02:45:04 10° NNW 02:47:42 35° N 02:47:42 35° N
Cosmos 1975 Rocket 4.3 02:45:50 10° NNW 02:48:54 40° NW 02:48:54 40° NW
Cosmos 1140 Rocket 4.1 02:49:39 10° NNW 02:53:47 53° NW 02:53:47 53° NW
ATLAS 5 CENTAUR R/B 3.6 02:58:31 10° N 03:00:41 22° NNE 03:00:41 22° NNE
Okean O Rocket 4.1 03:03:31 14° W 03:03:39 14° W 03:05:58 10° WNW
Cosmos 407 Rocket 4.4 03:04:23 10° NNW 03:07:51 44° N 03:07:51 44° N
Cosmos 2100 Rocket 4.4 03:15:21 55° NNE 03:15:21 55° NNE 03:20:10 10° N
Cosmos 2369 Rocket 3.8 03:13:05 10° NW 03:17:11 24° W 03:17:11 24° W
BREEZE-M DEB (TANK) 4.4 03:21:30 10° NW 03:43:40 - ESE 03:24:44 55° N
SeaSat 1 4.1 03:41:04 29° N 03:41:04 29° N 03:43:45 10° NNW
ATLAS 2AS CENTAUR R/B 4.0 03:44:29 29° ENE 03:44:29 29° ENE 03:47:45 10° NE
SJ 16-02 4.1 03:58:15 10° NNW 03:59:08 16° NNW 03:59:08 16° NNW
Cosmos 1833 Rocket 4.3 04:23:20 29° NNE 04:23:20 29° NNE 04:25:57 10° NNE
ACS3 Solar Sail 3.8 04:43:19 10° NE 04:45:39 17° ENE 04:45:39 17° ENE
CZ-2C R/B 4.2 04:53:15 32° NNE 04:53:15 32° NNE 04:56:18 10° N
ATLAS 3B R/B 3.4 04:56:03 10° NNW 05:03:38 53° NE 05:03:46 53° NE
Cosmos 1697 Rocket 4.4 05:06:01 10° NNW 05:08:28 27° NNW 05:08:28 27° NNW
USA 229 DEB 4.2 05:20:35 10° NW 05:26:58 66° NNW 05:26:58 66° NNW
USA 229 4.2 05:20:38 10° NW 05:27:05 67° NNW 05:27:05 67° NNW
Cosmos 1980 Rocket 3.6 05:26:21 10° NNW 05:29:28 33° NNW 05:29:28 33° NNW
ATLAS 2AS CENTAUR R/B 3.8 05:31:51 36° NW 05:32:13 36° NW 05:38:27 10° NNE
Cosmos 2333 Rocket 4.1 05:56:03 10° N 06:00:40 25° NE 06:02:50 20° E
Cosmos 2082 Rocket 3.2 06:04:49 43° N 06:04:49 43° N 06:08:42 10° NNE
USA 281 4.0 06:11:57 36° E 06:13:55 46° ENE 06:20:08 10° NNW
Cosmos 2322 Rocket 4.4 06:09:58 10° N 06:14:09 21° NE 06:18:21 10° E
Cosmos 2279 Rocket 4.4 06:17:37 57° ENE 06:17:37 57° ENE 06:23:03 10° NNE
CZ-3 Stage 3 4.4 06:19:31 24° ESE 06:19:31 24° ESE 06:26:13 10° E
SL-16 R/B 3.0 06:24:18 10° NNW 06:29:46 46° ENE 06:30:09 45° ENE
ACS3 Solar Sail 2.2 06:24:16 10° N 06:29:12 55° NNW 06:29:12 55° NNW
NOSS 3-3 (A) 4.2 06:36:21 55° NNE 06:36:21 55° NNE 06:40:58 10° NE
CZ-4C R/B 3.5 06:36:45 27° NNW 06:36:45 27° NNW 06:40:10 10° NNE
Cosmos 2266 Rocket 4.5 06:45:27 10° N 06:51:24 53° E 06:52:41 45° ESE
NOSS 3-3 (C) 3.9 06:52:45 65° N 06:52:45 65° N 06:57:57 10° NNE
ATLAS 3B R/B 4.1 06:47:20 10° NW 06:50:58 26° WNW 06:50:58 26° WNW
Meteor 2-6 Rocket 4.3 06:55:39 72° NNW 06:55:39 72° NNW 07:00:56 10° N
USA 267 3.2 06:49:10 10° NE 06:55:44 69° SE 06:56:03 68° SSE
IDEFIX/ARIANE 42P 3.1 06:55:19 10° N 06:59:26 52° NNW 06:59:26 52° NNW
Envisat 4.0 06:56:41 10° NNE 07:01:23 37° E 07:01:47 37° ESE
Iridium 4 Rocket 4.3 07:01:35 39° E 07:01:46 39° E 07:06:22 10° NNE
Cosmos 1763 Rocket 3.5 07:12:59 79° NE 07:12:59 79° NE 07:18:00 10° NNE
ALOS 3.4 07:09:04 10° NNE 07:13:12 33° E 07:13:36 33° ESE
ADEOS II 3.5 07:12:20 10° NE 07:16:56 31° E 07:18:54 24° SE
COSMOS 2406 4.1 07:20:33 35° WNW 07:20:34 35° WNW 07:25:49 10° N
BREEZE-M DEB (TANK) 3.7 07:19:20 48° S 07:20:43 55° SSE 07:24:50 10° ENE
CZ-2D R/B 2.6 07:21:47 10° NNE 07:26:57 53° E 07:28:18 42° SSE
MSX 4.5 07:23:34 10° N 07:28:52 39° WNW 07:28:54 39° WNW
CZ-3 R/B 4.2 06:46:26 10° WSW 07:30:16 55° S 07:41:45 10° ESE
USA 234 4.4 07:24:36 10° E 07:30:39 42° NNE 07:36:42 10° NW
Cosmos 2221 3.7 07:32:53 32° NNW 07:32:53 32° NNW 07:35:27 10° N
Cosmos 1354 Rocket 4.0 07:31:05 10° NNW 07:36:22 77° ENE 07:38:48 33° SSE
Cosmos 1503 Rocket 3.8 07:32:21 10° NNW 07:37:31 70° W 07:37:31 70° W
Cosmos 540 Rocket 3.5 07:40:24 61° W 07:40:35 61° WNW 07:45:42 10° NNE
FENGYUN 3A 4.3 07:37:36 10° N 07:42:35 38° WNW 07:42:44 38° WNW
Cosmos 2360 Rocket 2.1 07:37:28 10° NNW 07:43:11 90° WSW 07:47:31 18° SSE
BREEZE-M DEB (TANK) 3.9 07:42:24 22° NNW 07:44:17 44° NNE 07:52:15 10° ESE
Cosmos 2333 Rocket 2.4 07:39:45 10° NW 07:44:45 49° W 07:44:45 49° W
USA 290 3.9 07:47:47 28° N 07:47:47 28° N 07:49:30 10° N
ADEOS Rocket 3.8 07:39:31 10° N 07:46:56 55° WNW 07:49:37 39° WSW
SL-4 R/B 2.5 07:45:50 36° NNW 07:47:03 52° NNE 07:50:46 10° ESE
Cosmos 468 Rocket 3.9 07:46:45 56° SSW 07:47:53 86° ESE 07:53:12 10° NNE
Cosmos 2082 Rocket 4.4 07:46:37 11° WNW 07:48:09 12° NW 07:50:17 10° NNW
Cosmos 1766 Rocket 4.1 07:45:56 10° N 07:50:12 54° E 07:52:29 25° SSE
Resurs 1-4 Rocket 2.0 07:49:40 10° N 07:54:59 78° WNW 07:56:27 49° SSW
Cosmos 2278 4.0 07:53:00 10° NW 07:58:15 43° WSW 07:58:15 43° WSW
SL-19 R/B 4.4 07:52:43 10° NNE 07:58:28 80° ESE 08:01:36 30° S
USA 281 3.8 07:58:47 34° W 07:58:47 34° W 08:04:22 10° NW
Cosmos 2322 Rocket 2.1 07:53:03 10° NNW 07:58:37 62° WSW 08:01:23 30° S
Cosmos 1833 4.3 07:59:54 45° WSW 08:01:25 60° WNW 08:07:04 10° NNE
BREEZE-M DEB (TANK) 3.8 07:50:16 10° WNW 08:01:42 78° NNE 08:05:08 10° ESE
H-2A R/B 2.0 08:02:21 10° NNE 08:07:32 87° WNW 08:09:58 33° SSW
ISS -3.8 08:08:06 83° ENE 08:08:06 83° ENE 08:11:22 10° NE
ACS3 Solar Sail 3.9 08:11:08 10° NW 08:11:31 10° WNW 08:11:53 10° WNW
Cosmos 2219 Rocket 2.1 08:06:37 10° NNW 08:12:17 86° WSW 08:17:56 10° SSE
SL-16 R/B 3.5 08:09:01 10° NW 08:11:55 22° WNW 08:11:55 22° WNW
Meteor 1-11 Rocket 4.1 08:11:18 10° NNW 08:16:49 44° W 08:18:51 32° SW
JB-3 4.0 08:15:11 28° SSE 08:17:00 84° ENE 08:20:36 10° N
Cosmos 1461 2.5 08:18:12 57° WSW 08:18:50 73° WNW 08:22:34 10° NNE
ARGOS 3.7 08:16:08 10° NNE 08:21:26 56° E 08:26:41 10° S
Meteor 2-11 Rocket 4.4 08:16:23 10° N 08:22:34 87° E 08:28:42 10° S
METEOR-M 4.1 08:18:02 10° NNE 08:23:23 89° ESE 08:27:08 20° SSW
H-2A R/B 2.9 08:26:13 34° W 08:26:13 34° W 08:29:03 10° NNW
Gbstr 26 Del rocket 2.5 08:25:36 11° NW 08:29:12 89° NNE 08:33:02 10° SE
Cosmos 2084 Rocket 3.4 08:25:37 10° NW 08:29:45 56° WSW 08:33:54 10° SSE
Cosmos 372 Rocket 3.8 08:25:54 10° NNW 08:31:04 80° WSW 08:36:10 10° SSE
Alouette 2 Rocket 3.3 08:28:34 10° NNW 08:32:14 48° W 08:33:25 33° SSW
Cosmos 1238 Rocket 4.0 08:36:08 17° NW 08:36:08 17° NW 08:37:33 10° NNW
Cosmos 1151 Rocket 4.0 08:32:15 10° SSE 08:36:15 44° E 08:40:17 10° NNE
USA 267 4.1 08:32:26 10° NE 08:38:28 41° NNW 08:43:24 15° W
Cosmos 1842 Rocket 3.6 08:37:08 26° SSW 08:39:20 55° W 08:43:34 10° N
Envisat 4.2 08:35:59 10° NNW 08:40:06 26° WNW 08:41:55 21° W
AQUA 3.7 08:38:14 10° NNE 08:42:56 88° ESE 08:47:23 11° SSW
Meteor 2-4 Rocket 4.1 08:40:30 23° SW 08:43:23 42° WNW 08:48:27 10° N
Aureole 1 Rocket 3.7 08:39:17 10° NW 08:43:34 44° WSW 08:48:52 10° S
USA 276 3.0 08:46:30 17° N 08:47:10 21° NNE 08:48:37 10° E
Cosmos 1066 Rocket 4.2 08:44:20 17° SSW 08:48:19 55° WNW 08:53:35 10° N
Cosmos 1758 3.8 08:45:48 10° N 08:49:23 55° E 08:52:55 10° SSE
SL-08 R/B 4.5 08:43:20 10° N 08:49:40 76° W 08:55:58 10° S
ALOS 3.5 08:46:19 10° NNW 08:49:55 23° WNW 08:51:38 19° W
Sich 1 2.8 08:49:38 10° N 08:53:48 76° W 08:57:54 10° S
ADEOS II 2.9 08:51:48 10° N 08:56:25 33° WNW 08:59:43 17° WSW
Okean 3 Rocket 3.5 08:52:52 10° NNW 08:57:19 74° W 09:01:46 10° S
Cosmos 2297 Rocket 2.8 08:54:46 10° S 09:00:16 58° ESE 09:05:49 10° NNE
Cosmos 841 Rocket 4.0 08:58:30 17° SW 09:02:08 42° WNW 09:07:03 10° N
Cosmos 1805 Rocket 3.7 09:00:55 10° N 09:05:20 79° E 09:09:40 10° S
CZ-2D R/B 3.6 09:02:43 10° NNW 09:06:30 21° WNW 09:09:35 13° WSW
NOSS 3-4 (A) 4.1 09:01:02 10° NW 09:07:54 53° WSW 09:15:52 10° SSE
NOSS 3-4 (C) 4.1 09:01:35 10° NW 09:08:29 54° WSW 09:16:26 10° SSE
ATLAS 5 CENTAUR R/B 4.2 09:05:36 15° WSW 09:10:26 66° NW 09:32:30 10° NE
Cosmos 1386 Rocket 4.4 09:04:33 10° NNW 09:10:39 70° W 09:16:50 10° S
S3M 4.1 09:05:17 10° S 09:11:39 88° E 09:17:58 10° N
H-2A R/B 2.0 09:08:33 10° N 09:12:28 52° WNW 09:16:17 10° SSW
COSMOS 2428 2.7 09:06:45 10° NNW 09:12:29 86° WSW 09:18:10 10° SSE
USA 234 3.2 09:06:55 10° SE 09:13:25 67° SW 09:19:56 10° NW
Cosmos 1898 Rocket 3.8 09:08:33 10° NNW 09:13:25 43° WSW 09:18:17 10° S
Cosmos 1937 Rocket 3.5 09:12:31 10° NNW 09:17:35 56° WSW 09:22:34 10° S
SL-16 R/B 2.6 09:11:35 10° S 09:17:44 60° WSW 09:23:56 10° NNW
Cosmos 1340 Rocket 3.9 09:14:12 10° N 09:17:49 45° ENE 09:21:27 10° SSE
DELTA 2 R/B (1) 3.8 09:15:52 12° WSW 09:20:56 63° SSE 09:26:25 10° E
SL-4 R/B 3.0 09:21:10 10° W 09:24:13 23° SW 09:27:10 10° S
Cosmos 2360 Rocket 3.9 09:24:35 10° WNW 09:26:14 11° W 09:27:55 10° WSW
SL-14 R/B 4.3 09:23:25 10° SW 09:26:46 27° WNW 09:30:08 10° NNW
Meteor 2-10 Rocket 4.3 09:26:20 10° NNW 09:30:46 30° W 09:35:19 10° SSW
RESURS DK-1 3.5 09:26:59 10° NNW 09:30:50 47° ENE 09:34:40 10° SE
Resurs 1-4 Rocket 4.1 09:32:48 10° NW 09:33:49 11° WNW 09:34:51 10° WNW
BREEZE-M DEB (TANK) 2.3 09:28:15 10° WNW 09:34:34 76° SW 09:37:10 10° SE
CZ-2C R/B 2.4 09:30:24 10° N 09:35:11 64° WNW 09:39:48 10° SSW
Cosmos 1939 Rocket 2.8 09:32:07 10° NNE 09:35:45 78° ESE 09:39:24 10° S
